Wetterdaten: Montag, 20.07.2015
Datum Zeit Auen-Temp. Temp gefhlt Luftfeuchte Luftdruck Regen Wind Richtung Richtung Taupunkt Windben
20.07.2015 00:00 17,9 C 17,6 C 86 % 1011,0 hPa 0,0 mm 0,5 km/h (0 Bft) S-SW 202 15,5 C 0,0 km/h (0 Bft)
20.07.2015 00:05 17,9 C 17,6 C 86 % 1011,0 hPa 0,0 mm 0,8 km/h (0 Bft) O-SO 112 15,5 C 0,0 km/h (0 Bft)
20.07.2015 00:10 18,0 C 17,7 C 85 % 1011,1 hPa 0,0 mm 1,3 km/h (1 Bft) SO 135 15,4 C 0,0 km/h (0 Bft)
20.07.2015 00:15 18,0 C 17,7 C 85 % 1011,1 hPa 0,0 mm 1,3 km/h (1 Bft) N-NO 22 15,4 C 5,2 km/h (1 Bft)
20.07.2015 00:20 17,9 C 17,6 C 85 % 1011,1 hPa 0,0 mm 0,5 km/h (0 Bft) O 90 15,3 C 0,0 km/h (0 Bft)
20.07.2015 00:25 17,8 C 17,5 C 85 % 1011,1 hPa 0,0 mm 0,3 km/h (0 Bft) O-NO 67 15,2 C 0,0 km/h (0 Bft)
20.07.2015 00:30 17,8 C 17,5 C 85 % 1011,2 hPa 0,0 mm 0,3 km/h (0 Bft) SO 135 15,2 C 3,4 km/h (1 Bft)
20.07.2015 00:35 17,8 C 17,5 C 85 % 1011,2 hPa 0,0 mm 0,3 km/h (0 Bft) SW 225 15,2 C 0,0 km/h (0 Bft)
20.07.2015 00:40 17,8 C 17,5 C 85 % 1011,2 hPa 0,0 mm 0,8 km/h (0 Bft) NW 315 15,2 C 9,1 km/h (2 Bft)
20.07.2015 00:45 17,9 C 17,6 C 85 % 1011,2 hPa 0,0 mm 2,3 km/h (1 Bft) S 180 15,3 C 5,7 km/h (1 Bft)
20.07.2015 00:50 18,2 C 17,9 C 82 % 1011,4 hPa 0,0 mm 6,0 km/h (2 Bft) S-SW 202 15,1 C 14,5 km/h (3 Bft)
20.07.2015 00:55 18,4 C 18,0 C 84 % 1011,4 hPa 0,0 mm 6,7 km/h (2 Bft) S 180 15,6 C 8,5 km/h (2 Bft)
20.07.2015 01:00 18,2 C 18,0 C 83 % 1011,4 hPa 0,0 mm 4,9 km/h (1 Bft) SW 225 15,3 C 0,0 km/h (0 Bft)
20.07.2015 01:05 18,2 C 17,9 C 83 % 1011,4 hPa 0,0 mm 3,4 km/h (1 Bft) S 180 15,3 C 6,5 km/h (2 Bft)
20.07.2015 01:10 18,2 C 18,0 C 83 % 1011,4 hPa 0,0 mm 3,1 km/h (1 Bft) S 180 15,3 C 3,4 km/h (1 Bft)
20.07.2015 01:15 18,2 C 18,0 C 83 % 1011,4 hPa 0,0 mm 3,9 km/h (1 Bft) W-SW 247 15,3 C 8,0 km/h (2 Bft)
20.07.2015 01:20 18,1 C 17,9 C 83 % 1011,4 hPa 0,0 mm 3,1 km/h (1 Bft) SO 135 15,2 C 0,0 km/h (0 Bft)
20.07.2015 01:25 18,0 C 17,8 C 83 % 1011,4 hPa 0,0 mm 1,6 km/h (1 Bft) O-SO 112 15,1 C 0,0 km/h (0 Bft)
20.07.2015 01:30 18,1 C 17,8 C 83 % 1011,3 hPa 0,0 mm 2,3 km/h (1 Bft) O-SO 112 15,2 C 3,1 km/h (1 Bft)
20.07.2015 01:35 18,1 C 17,8 C 83 % 1011,3 hPa 0,0 mm 3,9 km/h (1 Bft) SO 135 15,2 C 6,2 km/h (2 Bft)
20.07.2015 01:40 18,5 C 18,2 C 82 % 1011,3 hPa 0,0 mm 4,7 km/h (1 Bft) S-SO 157 15,4 C 7,3 km/h (2 Bft)
20.07.2015 01:45 18,4 C 18,2 C 81 % 1011,3 hPa 0,0 mm 3,4 km/h (1 Bft) S-SO 157 15,1 C 3,1 km/h (1 Bft)
20.07.2015 01:50 18,4 C 18,2 C 81 % 1011,6 hPa 0,0 mm 2,6 km/h (1 Bft) SW 225 15,1 C 2,6 km/h (1 Bft)
20.07.2015 01:55 18,4 C 18,3 C 81 % 1011,6 hPa 0,0 mm 3,1 km/h (1 Bft) S 180 15,1 C 5,2 km/h (1 Bft)
20.07.2015 02:00 18,5 C 18,3 C 80 % 1011,6 hPa 0,0 mm 2,3 km/h (1 Bft) SW 225 15,0 C 0,0 km/h (0 Bft)
20.07.2015 02:05 18,2 C 18,1 C 80 % 1011,6 hPa 0,0 mm 1,3 km/h (1 Bft) O-NO 67 14,7 C 0,0 km/h (0 Bft)
20.07.2015 02:10 17,9 C 17,8 C 81 % 1011,9 hPa 0,0 mm 0,8 km/h (0 Bft) NW 315 14,6 C 0,0 km/h (0 Bft)
20.07.2015 02:15 17,8 C 17,6 C 82 % 1011,9 hPa 0,0 mm 1,3 km/h (1 Bft) S-SO 157 14,7 C 3,4 km/h (1 Bft)
20.07.2015 02:20 17,9 C 17,7 C 83 % 1011,9 hPa 0,0 mm 2,1 km/h (1 Bft) S 180 15,0 C 4,4 km/h (1 Bft)
20.07.2015 02:25 17,9 C 17,7 C 83 % 1011,9 hPa 0,0 mm 3,1 km/h (1 Bft) SO 135 15,0 C 4,9 km/h (1 Bft)
20.07.2015 02:27 17,8 C 17,6 C 83 % 1012,0 hPa 0,0 mm 2,1 km/h (1 Bft) NO 45 14,9 C 0,0 km/h (0 Bft)
20.07.2015 02:30 17,8 C 17,6 C 83 % 1012,0 hPa 0,0 mm 2,1 km/h (1 Bft) NO 45 14,9 C 0,0 km/h (0 Bft)
20.07.2015 02:35 17,7 C 17,5 C 84 % 1012,0 hPa 0,0 mm 0,8 km/h (0 Bft) O-NO 67 15,0 C 0,0 km/h (0 Bft)
20.07.2015 02:40 17,8 C 17,6 C 84 % 1012,0 hPa 0,0 mm 1,0 km/h (0 Bft) SO 135 15,1 C 4,4 km/h (1 Bft)
20.07.2015 02:45 17,9 C 17,7 C 84 % 1012,0 hPa 0,0 mm 1,6 km/h (1 Bft) SO 135 15,2 C 0,0 km/h (0 Bft)
20.07.2015 02:50 17,8 C 17,7 C 84 % 1012,1 hPa 0,0 mm 1,0 km/h (0 Bft) S-SO 157 15,1 C 0,0 km/h (0 Bft)
20.07.2015 02:55 17,7 C 17,6 C 83 % 1012,1 hPa 0,0 mm 0,3 km/h (0 Bft) S-SO 157 14,8 C 0,0 km/h (0 Bft)
20.07.2015 03:00 17,7 C 17,6 C 83 % 1012,1 hPa 0,0 mm 0,0 km/h (0 Bft) S-SO 157 14,8 C 0,0 km/h (0 Bft)
20.07.2015 03:05 17,6 C 17,5 C 83 % 1012,1 hPa 0,0 mm 0,0 km/h (0 Bft) SW 225 14,7 C 0,0 km/h (0 Bft)
20.07.2015 03:10 17,3 C 17,2 C 83 % 1011,9 hPa 0,0 mm 0,0 km/h (0 Bft) S 180 14,4 C 0,0 km/h (0 Bft)
20.07.2015 03:15 17,2 C 17,1 C 83 % 1011,9 hPa 0,0 mm 0,0 km/h (0 Bft) S 180 14,3 C 0,0 km/h (0 Bft)
20.07.2015 03:20 17,0 C 16,9 C 84 % 1011,9 hPa 0,0 mm 0,0 km/h (0 Bft) S-SO 157 14,3 C 0,0 km/h (0 Bft)
20.07.2015 03:25 16,9 C 16,7 C 84 % 1011,9 hPa 0,0 mm 0,0 km/h (0 Bft) S-SO 157 14,2 C 0,0 km/h (0 Bft)
20.07.2015 03:30 16,8 C 16,6 C 85 % 1011,9 hPa 0,0 mm 0,0 km/h (0 Bft) SO 135 14,3 C 0,0 km/h (0 Bft)
20.07.2015 03:35 16,6 C 16,4 C 85 % 1011,9 hPa 0,0 mm 0,0 km/h (0 Bft) S-SO 157 14,1 C 0,0 km/h (0 Bft)
20.07.2015 03:40 16,5 C 16,3 C 85 % 1011,9 hPa 0,0 mm 0,0 km/h (0 Bft) S-SO 157 14,0 C 0,0 km/h (0 Bft)
20.07.2015 03:45 16,4 C 16,2 C 85 % 1011,9 hPa 0,0 mm 0,0 km/h (0 Bft) SO 135 13,9 C 0,0 km/h (0 Bft)
20.07.2015 03:50 16,2 C 16,0 C 85 % 1012,1 hPa 0,0 mm 0,0 km/h (0 Bft) SW 225 13,7 C 0,0 km/h (0 Bft)
20.07.2015 03:55 16,2 C 16,0 C 85 % 1012,1 hPa 0,0 mm 0,0 km/h (0 Bft) S 180 13,7 C 0,0 km/h (0 Bft)
20.07.2015 04:00 16,3 C 16,1 C 83 % 1012,1 hPa 0,0 mm 0,0 km/h (0 Bft) S 180 13,4 C 0,0 km/h (0 Bft)
20.07.2015 04:05 16,2 C 16,1 C 86 % 1012,1 hPa 0,0 mm 0,0 km/h (0 Bft) S-SO 157 13,9 C 0,0 km/h (0 Bft)
20.07.2015 04:10 16,2 C 16,0 C 86 % 1011,9 hPa 0,0 mm 0,3 km/h (0 Bft) S 180 13,9 C 0,0 km/h (0 Bft)
20.07.2015 04:15 16,0 C 15,9 C 83 % 1011,9 hPa 0,0 mm 0,3 km/h (0 Bft) S 180 13,1 C 0,0 km/h (0 Bft)
20.07.2015 04:20 15,9 C 15,8 C 87 % 1011,9 hPa 0,0 mm 0,0 km/h (0 Bft) S-SO 157 13,7 C 0,0 km/h (0 Bft)
20.07.2015 04:25 15,9 C 15,7 C 87 % 1011,9 hPa 0,0 mm 0,0 km/h (0 Bft) SW 225 13,7 C 0,0 km/h (0 Bft)
20.07.2015 04:30 15,9 C 15,7 C 87 % 1011,9 hPa 0,0 mm 0,0 km/h (0 Bft) S-SO 157 13,7 C 0,0 km/h (0 Bft)
20.07.2015 04:35 15,8 C 15,6 C 87 % 1011,9 hPa 0,0 mm 0,0 km/h (0 Bft) SW 225 13,6 C 0,0 km/h (0 Bft)
20.07.2015 04:40 15,9 C 15,7 C 87 % 1011,9 hPa 0,0 mm 0,8 km/h (0 Bft) S-SW 202 13,7 C 5,2 km/h (1 Bft)
20.07.2015 04:45 15,8 C 15,6 C 87 % 1011,9 hPa 0,0 mm 1,0 km/h (0 Bft) S-SO 157 13,6 C 0,0 km/h (0 Bft)
20.07.2015 04:50 15,7 C 15,5 C 87 % 1011,8 hPa 0,0 mm 0,3 km/h (0 Bft) S-SO 157 13,5 C 0,0 km/h (0 Bft)
20.07.2015 04:55 15,7 C 15,5 C 87 % 1011,8 hPa 0,0 mm 0,0 km/h (0 Bft) S-SO 157 13,5 C 0,0 km/h (0 Bft)
20.07.2015 05:00 15,5 C 15,4 C 87 % 1011,8 hPa 0,0 mm 0,0 km/h (0 Bft) S-SO 157 13,3 C 0,0 km/h (0 Bft)
20.07.2015 05:05 15,7 C 15,5 C 87 % 1011,8 hPa 0,0 mm 0,3 km/h (0 Bft) SO 135 13,5 C 3,1 km/h (1 Bft)
20.07.2015 05:10 15,9 C 15,7 C 88 % 1011,8 hPa 0,0 mm 1,0 km/h (0 Bft) S-SO 157 13,9 C 0,0 km/h (0 Bft)
20.07.2015 05:15 15,9 C 15,7 C 88 % 1011,8 hPa 0,0 mm 1,0 km/h (0 Bft) SO 135 13,9 C 0,0 km/h (0 Bft)
20.07.2015 05:20 15,9 C 15,7 C 88 % 1011,8 hPa 0,0 mm 0,5 km/h (0 Bft) SO 135 13,9 C 0,0 km/h (0 Bft)
20.07.2015 05:25 15,9 C 15,7 C 88 % 1011,8 hPa 0,0 mm 0,3 km/h (0 Bft) O-SO 112 13,9 C 0,0 km/h (0 Bft)
20.07.2015 05:30 15,9 C 15,7 C 88 % 1011,6 hPa 0,0 mm 0,0 km/h (0 Bft) S-SO 157 13,9 C 0,0 km/h (0 Bft)
20.07.2015 05:35 15,9 C 15,7 C 88 % 1011,6 hPa 0,0 mm 0,0 km/h (0 Bft) S 180 13,9 C 2,8 km/h (1 Bft)
20.07.2015 05:40 16,0 C 15,8 C 87 % 1011,6 hPa 0,0 mm 0,3 km/h (0 Bft) W 270 13,8 C 0,0 km/h (0 Bft)
20.07.2015 05:45 16,0 C 15,8 C 87 % 1011,6 hPa 0,0 mm 0,3 km/h (0 Bft) SW 225 13,8 C 0,0 km/h (0 Bft)
20.07.2015 05:50 16,0 C 15,8 C 87 % 1011,7 hPa 0,0 mm 0,0 km/h (0 Bft) S 180 13,8 C 0,0 km/h (0 Bft)
20.07.2015 05:55 16,0 C 15,8 C 87 % 1011,7 hPa 0,0 mm 0,3 km/h (0 Bft) W-SW 247 13,8 C 5,4 km/h (1 Bft)
20.07.2015 06:00 16,0 C 15,9 C 84 % 1011,7 hPa 0,0 mm 0,3 km/h (0 Bft) NW 315 13,3 C 0,0 km/h (0 Bft)
20.07.2015 06:05 16,0 C 16,0 C 84 % 1011,7 hPa 0,0 mm 0,3 km/h (0 Bft) NW 315 13,3 C 0,0 km/h (0 Bft)
20.07.2015 06:10 16,0 C 16,0 C 84 % 1011,8 hPa 0,0 mm 0,3 km/h (0 Bft) SW 225 13,3 C 0,0 km/h (0 Bft)
20.07.2015 06:15 16,1 C 16,1 C 84 % 1011,8 hPa 0,0 mm 0,5 km/h (0 Bft) SW 225 13,4 C 0,0 km/h (0 Bft)
20.07.2015 06:20 16,2 C 16,2 C 84 % 1011,8 hPa 0,0 mm 1,0 km/h (0 Bft) SO 135 13,5 C 0,0 km/h (0 Bft)
20.07.2015 06:25 16,2 C 16,2 C 84 % 1011,8 hPa 0,0 mm 0,8 km/h (0 Bft) SW 225 13,5 C 0,0 km/h (0 Bft)
20.07.2015 06:30 16,2 C 16,2 C 84 % 1011,6 hPa 0,0 mm 0,0 km/h (0 Bft) SO 135 13,5 C 0,0 km/h (0 Bft)
20.07.2015 06:35 16,2 C 16,3 C 84 % 1011,6 hPa 0,0 mm 0,0 km/h (0 Bft) SO 135 13,5 C 0,0 km/h (0 Bft)
20.07.2015 06:40 16,3 C 16,3 C 84 % 1011,6 hPa 0,0 mm 0,5 km/h (0 Bft) W-SW 247 13,6 C 0,0 km/h (0 Bft)
20.07.2015 06:45 16,3 C 16,4 C 84 % 1011,6 hPa 0,0 mm 0,5 km/h (0 Bft) W-SW 247 13,6 C 0,0 km/h (0 Bft)
20.07.2015 06:50 16,3 C 16,4 C 84 % 1011,9 hPa 0,0 mm 0,5 km/h (0 Bft) W-NW 292 13,6 C 0,0 km/h (0 Bft)
20.07.2015 06:55 16,4 C 16,6 C 84 % 1011,9 hPa 0,0 mm 1,0 km/h (0 Bft) W 270 13,7 C 0,0 km/h (0 Bft)
20.07.2015 07:00 16,5 C 16,6 C 84 % 1011,9 hPa 0,0 mm 1,8 km/h (1 Bft) N-NW 337 13,8 C 0,0 km/h (0 Bft)
20.07.2015 07:05 16,5 C 16,7 C 84 % 1011,9 hPa 0,0 mm 1,6 km/h (1 Bft) N-NW 337 13,8 C 0,0 km/h (0 Bft)
20.07.2015 07:10 16,6 C 16,7 C 84 % 1011,8 hPa 0,0 mm 0,0 km/h (0 Bft) N-NW 337 13,9 C 0,0 km/h (0 Bft)
20.07.2015 07:15 16,6 C 16,8 C 84 % 1011,8 hPa 0,0 mm 0,3 km/h (0 Bft) NW 315 13,9 C 0,0 km/h (0 Bft)
20.07.2015 07:20 16,6 C 16,8 C 84 % 1011,8 hPa 0,0 mm 0,3 km/h (0 Bft) W-SW 247 13,9 C 0,0 km/h (0 Bft)
20.07.2015 07:25 16,6 C 16,8 C 84 % 1011,8 hPa 0,0 mm 0,0 km/h (0 Bft) N-NW 337 13,9 C 0,0 km/h (0 Bft)
20.07.2015 07:30 16,6 C 16,8 C 84 % 1012,1 hPa 0,0 mm 0,5 km/h (0 Bft) O-NO 67 13,9 C 0,0 km/h (0 Bft)
20.07.2015 07:35 16,7 C 17,0 C 84 % 1012,1 hPa 0,0 mm 0,8 km/h (0 Bft) NW 315 14,0 C 6,5 km/h (2 Bft)
20.07.2015 07:40 16,8 C 17,0 C 84 % 1012,1 hPa 0,0 mm 1,3 km/h (1 Bft) W 270 14,1 C 0,0 km/h (0 Bft)
20.07.2015 07:45 16,9 C 17,2 C 84 % 1012,1 hPa 0,0 mm 1,3 km/h (1 Bft) N-NO 22 14,2 C 0,0 km/h (0 Bft)
20.07.2015 07:50 17,2 C 17,8 C 83 % 1012,1 hPa 0,0 mm 0,0 km/h (0 Bft) N-NW 337 14,3 C 0,0 km/h (0 Bft)
20.07.2015 07:55 17,3 C 18,1 C 83 % 1012,1 hPa 0,0 mm 0,3 km/h (0 Bft) W 270 14,4 C 4,4 km/h (1 Bft)
20.07.2015 08:00 17,5 C 18,6 C 83 % 1012,1 hPa 0,0 mm 0,3 km/h (0 Bft) N-NW 337 14,6 C 0,0 km/h (0 Bft)
20.07.2015 08:05 17,8 C 18,9 C 83 % 1012,1 hPa 0,0 mm 0,3 km/h (0 Bft) N-NO 22 14,9 C 0,0 km/h (0 Bft)
20.07.2015 08:10 18,0 C 19,3 C 83 % 1012,1 hPa 0,0 mm 0,0 km/h (0 Bft) NW 315 15,1 C 0,0 km/h (0 Bft)
20.07.2015 08:15 18,0 C 19,4 C 82 % 1012,1 hPa 0,0 mm 0,0 km/h (0 Bft) NW 315 14,9 C 0,0 km/h (0 Bft)
20.07.2015 08:20 18,1 C 19,5 C 82 % 1012,1 hPa 0,0 mm 0,0 km/h (0 Bft) N-NO 22 15,0 C 0,0 km/h (0 Bft)
20.07.2015 08:25 18,2 C 19,8 C 82 % 1012,1 hPa 0,0 mm 0,0 km/h (0 Bft) N-NO 22 15,1 C 0,0 km/h (0 Bft)
20.07.2015 08:28 18,4 C 20,1 C 82 % 1012,2 hPa 0,0 mm 0,0 km/h (0 Bft) O-SO 112 15,3 C 0,0 km/h (0 Bft)
20.07.2015 08:30 18,4 C 20,1 C 82 % 1012,2 hPa 0,0 mm 0,0 km/h (0 Bft) O-SO 112 15,3 C 0,0 km/h (0 Bft)
20.07.2015 08:35 18,6 C 20,3 C 82 % 1012,2 hPa 0,0 mm 0,0 km/h (0 Bft) SO 135 15,5 C 0,0 km/h (0 Bft)
20.07.2015 08:40 18,7 C 20,6 C 81 % 1012,2 hPa 0,0 mm 0,0 km/h (0 Bft) N-NO 22 15,4 C 0,0 km/h (0 Bft)
20.07.2015 08:45 18,9 C 20,7 C 81 % 1012,2 hPa 0,0 mm 0,0 km/h (0 Bft) W-SW 247 15,6 C 0,0 km/h (0 Bft)
20.07.2015 08:50 19,0 C 20,9 C 80 % 1012,2 hPa 0,0 mm 1,8 km/h (1 Bft) NW 315 15,5 C 0,0 km/h (0 Bft)
20.07.2015 08:55 19,0 C 20,9 C 80 % 1012,2 hPa 0,0 mm 1,8 km/h (1 Bft) NW 315 15,5 C 0,0 km/h (0 Bft)
20.07.2015 09:00 19,3 C 21,4 C 80 % 1012,2 hPa 0,0 mm 0,0 km/h (0 Bft) SW 225 15,8 C 0,0 km/h (0 Bft)
20.07.2015 09:05 19,6 C 21,9 C 80 % 1012,2 hPa 0,0 mm 0,0 km/h (0 Bft) NW 315 16,1 C 0,0 km/h (0 Bft)
20.07.2015 09:10 20,0 C 23,0 C 79 % 1012,2 hPa 0,0 mm 0,0 km/h (0 Bft) N-NW 337 16,2 C 0,0 km/h (0 Bft)
20.07.2015 09:15 20,4 C 23,7 C 79 % 1012,2 hPa 0,0 mm 0,5 km/h (0 Bft) NW 315 16,6 C 0,0 km/h (0 Bft)
20.07.2015 09:20 20,7 C 24,5 C 78 % 1012,2 hPa 0,0 mm 1,3 km/h (1 Bft) NW 315 16,7 C 0,0 km/h (0 Bft)
20.07.2015 09:25 20,8 C 25,0 C 77 % 1012,2 hPa 0,0 mm 2,1 km/h (1 Bft) NW 315 16,6 C 4,1 km/h (1 Bft)
20.07.2015 09:30 21,6 C 27,7 C 75 % 1012,1 hPa 0,0 mm 2,3 km/h (1 Bft) N-NW 337 17,0 C 3,1 km/h (1 Bft)
20.07.2015 09:35 22,0 C 28,9 C 75 % 1012,1 hPa 0,0 mm 1,8 km/h (1 Bft) NW 315 17,4 C 0,0 km/h (0 Bft)
20.07.2015 09:40 22,6 C 30,2 C 74 % 1012,1 hPa 0,0 mm 2,3 km/h (1 Bft) W-NW 292 17,7 C 6,2 km/h (2 Bft)
20.07.2015 09:45 22,8 C 30,1 C 72 % 1012,1 hPa 0,0 mm 3,6 km/h (1 Bft) W 270 17,5 C 5,4 km/h (1 Bft)
20.07.2015 09:50 22,9 C 30,0 C 70 % 1012,2 hPa 0,0 mm 4,1 km/h (1 Bft) N-NO 22 17,1 C 4,4 km/h (1 Bft)
20.07.2015 09:55 22,8 C 30,1 C 70 % 1012,2 hPa 0,0 mm 2,3 km/h (1 Bft) S 180 17,0 C 3,4 km/h (1 Bft)
20.07.2015 10:00 23,4 C 30,9 C 69 % 1012,2 hPa 0,0 mm 1,6 km/h (1 Bft) S-SW 202 17,4 C 4,1 km/h (1 Bft)
20.07.2015 10:05 23,7 C 31,2 C 67 % 1012,2 hPa 0,0 mm 1,3 km/h (1 Bft) O-SO 112 17,2 C 0,0 km/h (0 Bft)
20.07.2015 10:10 24,0 C 31,4 C 66 % 1012,4 hPa 0,0 mm 2,1 km/h (1 Bft) W-NW 292 17,2 C 0,0 km/h (0 Bft)
20.07.2015 10:15 24,0 C 31,3 C 65 % 1012,4 hPa 0,0 mm 2,8 km/h (1 Bft) O-NO 67 17,0 C 0,0 km/h (0 Bft)
20.07.2015 10:20 24,1 C 30,8 C 64 % 1012,4 hPa 0,0 mm 5,4 km/h (1 Bft) O-NO 67 16,9 C 15,8 km/h (3 Bft)
20.07.2015 10:25 23,9 C 30,1 C 64 % 1012,4 hPa 0,0 mm 7,3 km/h (2 Bft) W 270 16,7 C 11,1 km/h (2 Bft)
20.07.2015 10:30 24,1 C 29,8 C 63 % 1012,6 hPa 0,0 mm 7,8 km/h (2 Bft) N-NW 337 16,6 C 9,3 km/h (2 Bft)
20.07.2015 10:35 24,2 C 29,7 C 63 % 1012,6 hPa 0,0 mm 7,5 km/h (2 Bft) W 270 16,7 C 7,3 km/h (2 Bft)
20.07.2015 10:40 24,4 C 29,5 C 62 % 1012,6 hPa 0,0 mm 7,8 km/h (2 Bft) W 270 16,6 C 22,3 km/h (4 Bft)
20.07.2015 10:45 24,1 C 29,1 C 62 % 1012,6 hPa 0,0 mm 9,3 km/h (2 Bft) NW 315 16,4 C 15,5 km/h (3 Bft)
20.07.2015 10:50 24,1 C 28,7 C 62 % 1012,9 hPa 0,0 mm 10,9 km/h (2 Bft) W 270 16,4 C 15,0 km/h (3 Bft)
20.07.2015 10:55 24,1 C 28,6 C 62 % 1012,9 hPa 0,0 mm 10,6 km/h (2 Bft) NW 315 16,4 C 8,8 km/h (2 Bft)
20.07.2015 11:00 24,5 C 28,9 C 62 % 1012,9 hPa 0,0 mm 8,8 km/h (2 Bft) NW 315 16,7 C 11,1 km/h (2 Bft)
20.07.2015 11:05 24,6 C 28,9 C 62 % 1012,9 hPa 0,0 mm 8,0 km/h (2 Bft) W-NW 292 16,8 C 7,8 km/h (2 Bft)
20.07.2015 11:10 24,9 C 29,2 C 62 % 1013,2 hPa 0,0 mm 9,3 km/h (2 Bft) N-NW 337 17,1 C 15,5 km/h (3 Bft)
20.07.2015 11:15 24,9 C 29,2 C 61 % 1013,2 hPa 0,0 mm 9,3 km/h (2 Bft) NW 315 16,8 C 10,6 km/h (2 Bft)
20.07.2015 11:20 25,0 C 29,5 C 61 % 1013,2 hPa 0,0 mm 8,8 km/h (2 Bft) W-NW 292 16,9 C 12,2 km/h (2 Bft)
20.07.2015 11:25 25,0 C 29,6 C 61 % 1013,2 hPa 0,0 mm 8,0 km/h (2 Bft) W 270 16,9 C 0,0 km/h (0 Bft)
20.07.2015 11:30 25,5 C 30,7 C 61 % 1013,1 hPa 0,0 mm 5,2 km/h (1 Bft) W-NW 292 17,4 C 11,4 km/h (2 Bft)
20.07.2015 11:35 25,4 C 30,9 C 60 % 1013,1 hPa 0,0 mm 4,7 km/h (1 Bft) NW 315 17,1 C 13,7 km/h (3 Bft)
20.07.2015 11:40 25,3 C 30,0 C 59 % 1013,1 hPa 0,0 mm 8,0 km/h (2 Bft) N-NO 22 16,7 C 5,7 km/h (1 Bft)
20.07.2015 11:45 25,3 C 30,3 C 59 % 1013,1 hPa 0,0 mm 7,5 km/h (2 Bft) S-SW 202 16,7 C 9,3 km/h (2 Bft)
20.07.2015 11:50 25,7 C 31,0 C 59 % 1013,1 hPa 0,0 mm 5,4 km/h (1 Bft) N 360 17,1 C 10,1 km/h (2 Bft)
20.07.2015 11:55 25,8 C 31,0 C 59 % 1013,1 hPa 0,0 mm 6,2 km/h (2 Bft) N-NW 337 17,2 C 6,7 km/h (2 Bft)
20.07.2015 12:00 25,1 C 29,2 C 59 % 1013,1 hPa 0,0 mm 6,7 km/h (2 Bft) N-NW 337 16,5 C 7,3 km/h (2 Bft)
20.07.2015 12:05 25,3 C 29,8 C 59 % 1013,1 hPa 0,0 mm 6,2 km/h (2 Bft) W 270 16,7 C 12,7 km/h (3 Bft)
20.07.2015 12:10 25,2 C 29,5 C 59 % 1013,1 hPa 0,0 mm 5,4 km/h (1 Bft) W-SW 247 16,6 C 6,2 km/h (2 Bft)
20.07.2015 12:15 25,5 C 29,8 C 59 % 1013,1 hPa 0,0 mm 5,4 km/h (1 Bft) W 270 16,9 C 8,8 km/h (2 Bft)
20.07.2015 12:20 25,8 C 30,7 C 59 % 1013,1 hPa 0,0 mm 6,5 km/h (2 Bft) NW 315 17,2 C 12,9 km/h (3 Bft)
20.07.2015 12:25 25,8 C 30,4 C 58 % 1013,1 hPa 0,0 mm 9,3 km/h (2 Bft) W 270 16,9 C 14,0 km/h (3 Bft)
20.07.2015 12:30 25,8 C 30,8 C 58 % 1013,0 hPa 0,0 mm 8,5 km/h (2 Bft) SO 135 16,9 C 3,4 km/h (1 Bft)
20.07.2015 12:35 25,9 C 30,9 C 58 % 1013,0 hPa 0,0 mm 5,2 km/h (1 Bft) W-SW 247 17,0 C 5,4 km/h (1 Bft)
20.07.2015 12:40 26,3 C 31,4 C 57 % 1013,0 hPa 0,0 mm 4,1 km/h (1 Bft) NW 315 17,1 C 13,7 km/h (3 Bft)
20.07.2015 12:45 26,6 C 31,8 C 57 % 1013,0 hPa 0,0 mm 3,9 km/h (1 Bft) W 270 17,4 C 3,1 km/h (1 Bft)
20.07.2015 12:50 26,4 C 31,5 C 56 % 1012,9 hPa 0,0 mm 4,7 km/h (1 Bft) W-NW 292 16,9 C 10,6 km/h (2 Bft)
20.07.2015 12:55 26,4 C 31,2 C 57 % 1012,9 hPa 0,0 mm 5,7 km/h (1 Bft) O-NO 67 17,2 C 0,0 km/h (0 Bft)
20.07.2015 13:00 26,3 C 30,7 C 56 % 1012,9 hPa 0,0 mm 6,5 km/h (2 Bft) NW 315 16,8 C 7,0 km/h (2 Bft)
20.07.2015 13:05 26,3 C 31,3 C 55 % 1012,9 hPa 0,0 mm 6,0 km/h (2 Bft) O-SO 112 16,5 C 5,7 km/h (1 Bft)
20.07.2015 13:10 26,5 C 31,5 C 54 % 1012,8 hPa 0,0 mm 7,3 km/h (2 Bft) W-NW 292 16,4 C 15,3 km/h (3 Bft)
20.07.2015 13:15 26,6 C 31,6 C 55 % 1012,8 hPa 0,0 mm 7,3 km/h (2 Bft) NW 315 16,8 C 3,4 km/h (1 Bft)
20.07.2015 13:20 27,0 C 32,0 C 54 % 1012,8 hPa 0,0 mm 6,2 km/h (2 Bft) NW 315 16,9 C 0,0 km/h (0 Bft)
20.07.2015 13:25 27,4 C 32,1 C 54 % 1012,8 hPa 0,0 mm 5,7 km/h (1 Bft) W-NW 292 17,3 C 10,4 km/h (2 Bft)
20.07.2015 13:30 27,5 C 31,2 C 54 % 1012,9 hPa 0,0 mm 6,2 km/h (2 Bft) W-NW 292 17,3 C 7,5 km/h (2 Bft)
20.07.2015 13:35 27,7 C 30,9 C 53 % 1012,9 hPa 0,0 mm 7,3 km/h (2 Bft) N-NW 337 17,2 C 15,5 km/h (3 Bft)
20.07.2015 13:40 27,5 C 30,5 C 53 % 1012,9 hPa 0,0 mm 8,3 km/h (2 Bft) NW 315 17,0 C 13,2 km/h (3 Bft)
20.07.2015 13:45 27,5 C 30,5 C 53 % 1012,9 hPa 0,0 mm 8,3 km/h (2 Bft) NW 315 17,0 C 6,5 km/h (2 Bft)
20.07.2015 13:50 27,3 C 30,1 C 53 % 1012,8 hPa 0,0 mm 6,0 km/h (2 Bft) W-NW 292 16,9 C 7,5 km/h (2 Bft)
20.07.2015 13:55 26,9 C 30,2 C 53 % 1012,8 hPa 0,0 mm 6,2 km/h (2 Bft) NW 315 16,5 C 4,4 km/h (1 Bft)
20.07.2015 14:00 27,0 C 30,1 C 53 % 1012,8 hPa 0,0 mm 5,4 km/h (1 Bft) NO 45 16,6 C 0,0 km/h (0 Bft)
20.07.2015 14:05 27,3 C 31,2 C 52 % 1012,8 hPa 0,0 mm 5,4 km/h (1 Bft) NW 315 16,6 C 5,7 km/h (1 Bft)
20.07.2015 14:10 27,2 C 31,4 C 52 % 1012,4 hPa 0,0 mm 6,2 km/h (2 Bft) O-NO 67 16,5 C 23,8 km/h (4 Bft)
20.07.2015 14:15 27,3 C 32,0 C 51 % 1012,4 hPa 0,0 mm 6,5 km/h (2 Bft) W-SW 247 16,3 C 8,0 km/h (2 Bft)
20.07.2015 14:20 27,3 C 32,2 C 51 % 1012,4 hPa 0,0 mm 6,5 km/h (2 Bft) W-NW 292 16,3 C 21,0 km/h (4 Bft)
20.07.2015 14:25 26,9 C 31,2 C 51 % 1012,4 hPa 0,0 mm 6,0 km/h (2 Bft) W 270 15,9 C 8,5 km/h (2 Bft)
20.07.2015 14:29 26,2 C 29,5 C 53 % 1012,5 hPa 0,0 mm 5,2 km/h (1 Bft) W 270 15,8 C 9,8 km/h (2 Bft)
20.07.2015 14:35 26,7 C 29,9 C 52 % 1012,5 hPa 0,0 mm 6,2 km/h (2 Bft) W-NW 292 16,0 C 15,8 km/h (3 Bft)
20.07.2015 14:40 27,2 C 31,2 C 51 % 1012,5 hPa 0,0 mm 7,8 km/h (2 Bft) W-NW 292 16,2 C 13,7 km/h (3 Bft)
20.07.2015 14:45 27,5 C 31,4 C 50 % 1012,5 hPa 0,0 mm 8,0 km/h (2 Bft) NW 315 16,1 C 13,5 km/h (3 Bft)
20.07.2015 14:50 27,6 C 31,9 C 50 % 1012,1 hPa 0,0 mm 6,5 km/h (2 Bft) W-SW 247 16,2 C 0,0 km/h (0 Bft)
20.07.2015 14:55 27,4 C 31,7 C 50 % 1012,1 hPa 0,0 mm 6,0 km/h (2 Bft) W 270 16,0 C 4,7 km/h (1 Bft)
20.07.2015 15:00 27,2 C 31,2 C 50 % 1012,1 hPa 0,0 mm 7,0 km/h (2 Bft) S-SW 202 15,9 C 4,9 km/h (1 Bft)
20.07.2015 15:05 27,3 C 31,0 C 50 % 1012,1 hPa 0,0 mm 5,4 km/h (1 Bft) W 270 15,9 C 6,7 km/h (2 Bft)
20.07.2015 15:10 27,8 C 31,9 C 50 % 1011,9 hPa 0,0 mm 6,0 km/h (2 Bft) NW 315 16,4 C 11,4 km/h (2 Bft)
20.07.2015 15:15 27,8 C 31,6 C 49 % 1011,9 hPa 0,0 mm 8,8 km/h (2 Bft) NW 315 16,1 C 10,6 km/h (2 Bft)
20.07.2015 15:20 27,7 C 31,5 C 50 % 1011,9 hPa 0,0 mm 8,3 km/h (2 Bft) W-SW 247 16,3 C 4,4 km/h (1 Bft)
20.07.2015 15:25 27,7 C 31,3 C 49 % 1011,9 hPa 0,0 mm 6,7 km/h (2 Bft) W-NW 292 16,0 C 4,7 km/h (1 Bft)
20.07.2015 15:30 27,9 C 31,8 C 49 % 1011,9 hPa 0,0 mm 8,3 km/h (2 Bft) N-NW 337 16,2 C 14,8 km/h (3 Bft)
20.07.2015 15:35 28,1 C 31,8 C 48 % 1011,9 hPa 0,0 mm 7,8 km/h (2 Bft) NW 315 16,0 C 2,8 km/h (1 Bft)
20.07.2015 15:40 28,3 C 32,1 C 48 % 1011,9 hPa 0,0 mm 7,5 km/h (2 Bft) W 270 16,2 C 14,0 km/h (3 Bft)
20.07.2015 15:45 27,3 C 30,5 C 48 % 1011,9 hPa 0,0 mm 8,0 km/h (2 Bft) NW 315 15,3 C 12,4 km/h (3 Bft)
20.07.2015 15:50 27,1 C 29,4 C 49 % 1011,6 hPa 0,0 mm 7,0 km/h (2 Bft) NW 315 15,4 C 13,2 km/h (3 Bft)
20.07.2015 15:55 27,3 C 30,2 C 48 % 1011,6 hPa 0,0 mm 8,3 km/h (2 Bft) N 360 15,3 C 4,9 km/h (1 Bft)
20.07.2015 16:00 27,4 C 30,0 C 49 % 1011,6 hPa 0,0 mm 8,3 km/h (2 Bft) W 270 15,7 C 5,7 km/h (1 Bft)
20.07.2015 16:05 27,8 C 31,2 C 49 % 1011,6 hPa 0,0 mm 7,5 km/h (2 Bft) W-NW 292 16,1 C 11,4 km/h (2 Bft)
20.07.2015 16:10 27,7 C 31,9 C 49 % 1011,6 hPa 0,0 mm 9,6 km/h (2 Bft) W 270 16,0 C 12,9 km/h (3 Bft)
20.07.2015 16:15 27,4 C 32,2 C 49 % 1011,6 hPa 0,0 mm 10,6 km/h (2 Bft) NO 45 15,7 C 12,9 km/h (3 Bft)
20.07.2015 16:20 27,2 C 32,6 C 49 % 1011,6 hPa 0,0 mm 9,1 km/h (2 Bft) NW 315 15,5 C 15,0 km/h (3 Bft)
20.07.2015 16:25 27,0 C 32,6 C 49 % 1011,6 hPa 0,0 mm 9,8 km/h (2 Bft) W 270 15,4 C 7,8 km/h (2 Bft)
20.07.2015 16:30 26,7 C 32,0 C 50 % 1011,6 hPa 0,0 mm 11,9 km/h (2 Bft) NW 315 15,4 C 14,8 km/h (3 Bft)
20.07.2015 16:35 26,7 C 30,9 C 49 % 1011,6 hPa 0,0 mm 11,7 km/h (2 Bft) S 180 15,1 C 14,2 km/h (3 Bft)
20.07.2015 16:40 26,6 C 31,2 C 50 % 1011,6 hPa 0,0 mm 10,4 km/h (2 Bft) W 270 15,3 C 17,6 km/h (3 Bft)
20.07.2015 16:45 26,6 C 31,4 C 50 % 1011,6 hPa 0,0 mm 10,1 km/h (2 Bft) W-SW 247 15,3 C 9,3 km/h (2 Bft)
20.07.2015 16:50 26,5 C 31,5 C 50 % 1011,6 hPa 0,0 mm 8,5 km/h (2 Bft) N-NO 22 15,2 C 3,1 km/h (1 Bft)
20.07.2015 16:55 26,6 C 31,8 C 50 % 1011,6 hPa 0,0 mm 7,8 km/h (2 Bft) W-SW 247 15,3 C 4,9 km/h (1 Bft)
20.07.2015 17:00 26,5 C 31,7 C 50 % 1011,6 hPa 0,0 mm 9,3 km/h (2 Bft) W-SW 247 15,2 C 7,0 km/h (2 Bft)
20.07.2015 17:05 26,4 C 30,8 C 50 % 1011,6 hPa 0,0 mm 9,3 km/h (2 Bft) NW 315 15,1 C 15,3 km/h (3 Bft)
20.07.2015 17:10 26,4 C 29,4 C 50 % 1011,6 hPa 0,0 mm 7,3 km/h (2 Bft) W-NW 292 15,1 C 10,6 km/h (2 Bft)
20.07.2015 17:15 26,4 C 28,8 C 50 % 1011,6 hPa 0,0 mm 8,5 km/h (2 Bft) W-NW 292 15,1 C 14,8 km/h (3 Bft)
20.07.2015 17:20 26,5 C 28,3 C 50 % 1011,6 hPa 0,0 mm 9,8 km/h (2 Bft) N-NW 337 15,2 C 8,8 km/h (2 Bft)
20.07.2015 17:25 26,4 C 28,1 C 50 % 1011,6 hPa 0,0 mm 10,1 km/h (2 Bft) W 270 15,1 C 11,4 km/h (2 Bft)
20.07.2015 17:30 26,2 C 27,6 C 50 % 1011,6 hPa 0,0 mm 11,1 km/h (2 Bft) W 270 14,9 C 14,0 km/h (3 Bft)
20.07.2015 17:35 26,0 C 27,4 C 50 % 1011,6 hPa 0,0 mm 8,5 km/h (2 Bft) NW 315 14,8 C 6,2 km/h (2 Bft)
20.07.2015 17:40 26,0 C 27,6 C 50 % 1011,6 hPa 0,0 mm 5,7 km/h (1 Bft) NW 315 14,8 C 5,2 km/h (1 Bft)
20.07.2015 17:45 26,0 C 27,5 C 50 % 1011,6 hPa 0,0 mm 6,7 km/h (2 Bft) W 270 14,8 C 10,4 km/h (2 Bft)
20.07.2015 17:50 26,0 C 27,6 C 50 % 1011,4 hPa 0,0 mm 6,5 km/h (2 Bft) W 270 14,8 C 11,1 km/h (2 Bft)
20.07.2015 17:55 25,9 C 27,6 C 52 % 1011,4 hPa 0,0 mm 4,9 km/h (1 Bft) N-NO 22 15,3 C 0,0 km/h (0 Bft)
20.07.2015 18:00 26,0 C 27,6 C 50 % 1011,4 hPa 0,0 mm 5,2 km/h (1 Bft) W-NW 292 14,8 C 3,4 km/h (1 Bft)
20.07.2015 18:05 26,1 C 27,7 C 50 % 1011,4 hPa 0,0 mm 4,1 km/h (1 Bft) N-NW 337 14,8 C 6,7 km/h (2 Bft)
20.07.2015 18:10 26,2 C 27,6 C 50 % 1011,5 hPa 0,0 mm 5,2 km/h (1 Bft) NW 315 14,9 C 9,1 km/h (2 Bft)
20.07.2015 18:15 26,1 C 27,4 C 50 % 1011,5 hPa 0,0 mm 7,8 km/h (2 Bft) NW 315 14,8 C 12,2 km/h (2 Bft)
20.07.2015 18:20 25,7 C 26,8 C 53 % 1011,5 hPa 0,0 mm 6,7 km/h (2 Bft) W 270 15,4 C 0,0 km/h (0 Bft)
20.07.2015 18:25 25,8 C 26,8 C 54 % 1011,5 hPa 0,0 mm 5,7 km/h (1 Bft) NW 315 15,8 C 11,1 km/h (2 Bft)
20.07.2015 18:30 25,9 C 27,0 C 52 % 1011,4 hPa 0,0 mm 5,2 km/h (1 Bft) N-NW 337 15,3 C 2,8 km/h (1 Bft)
20.07.2015 18:35 26,0 C 27,2 C 50 % 1011,4 hPa 0,0 mm 5,4 km/h (1 Bft) NW 315 14,8 C 9,1 km/h (2 Bft)
20.07.2015 18:40 26,1 C 27,3 C 50 % 1011,4 hPa 0,0 mm 4,9 km/h (1 Bft) S 180 14,8 C 3,4 km/h (1 Bft)
20.07.2015 18:45 26,0 C 27,3 C 50 % 1011,4 hPa 0,0 mm 4,4 km/h (1 Bft) NW 315 14,8 C 9,1 km/h (2 Bft)
20.07.2015 18:50 26,0 C 27,6 C 50 % 1011,4 hPa 0,0 mm 4,7 km/h (1 Bft) N-NW 337 14,8 C 6,7 km/h (2 Bft)
20.07.2015 18:55 26,0 C 28,3 C 50 % 1011,4 hPa 0,0 mm 5,4 km/h (1 Bft) N-NW 337 14,8 C 4,1 km/h (1 Bft)
20.07.2015 19:00 26,1 C 29,5 C 50 % 1011,4 hPa 0,0 mm 3,6 km/h (1 Bft) N-NO 22 14,8 C 7,5 km/h (2 Bft)
20.07.2015 19:05 26,1 C 29,9 C 50 % 1011,4 hPa 0,0 mm 3,6 km/h (1 Bft) NW 315 14,8 C 5,7 km/h (1 Bft)
20.07.2015 19:10 26,0 C 29,2 C 50 % 1011,6 hPa 0,0 mm 4,1 km/h (1 Bft) NW 315 14,8 C 0,0 km/h (0 Bft)
20.07.2015 19:15 25,9 C 28,6 C 53 % 1011,6 hPa 0,0 mm 2,8 km/h (1 Bft) N-NO 22 15,6 C 6,0 km/h (2 Bft)
20.07.2015 19:20 25,8 C 27,7 C 54 % 1011,6 hPa 0,0 mm 2,3 km/h (1 Bft) NW 315 15,8 C 0,0 km/h (0 Bft)
20.07.2015 19:25 25,8 C 27,4 C 54 % 1011,6 hPa 0,0 mm 2,3 km/h (1 Bft) NW 315 15,8 C 0,0 km/h (0 Bft)
20.07.2015 19:30 25,8 C 28,5 C 54 % 1011,4 hPa 0,0 mm 1,8 km/h (1 Bft) NW 315 15,8 C 0,0 km/h (0 Bft)
20.07.2015 19:35 25,9 C 29,2 C 55 % 1011,4 hPa 0,0 mm 1,8 km/h (1 Bft) NW 315 16,2 C 5,7 km/h (1 Bft)
20.07.2015 19:40 26,0 C 29,8 C 51 % 1011,4 hPa 0,0 mm 3,4 km/h (1 Bft) NO 45 15,1 C 5,7 km/h (1 Bft)
20.07.2015 19:45 26,0 C 30,0 C 51 % 1011,4 hPa 0,0 mm 4,4 km/h (1 Bft) NO 45 15,1 C 6,5 km/h (2 Bft)
20.07.2015 19:50 26,2 C 30,2 C 51 % 1011,5 hPa 0,0 mm 3,9 km/h (1 Bft) N-NO 22 15,2 C 6,5 km/h (2 Bft)
20.07.2015 19:55 26,1 C 30,2 C 52 % 1011,5 hPa 0,0 mm 2,8 km/h (1 Bft) N-NO 22 15,5 C 0,0 km/h (0 Bft)
20.07.2015 20:00 25,9 C 30,1 C 56 % 1011,5 hPa 0,0 mm 1,6 km/h (1 Bft) O-NO 67 16,4 C 0,0 km/h (0 Bft)
20.07.2015 20:05 25,8 C 29,9 C 56 % 1011,5 hPa 0,0 mm 0,8 km/h (0 Bft) O-NO 67 16,3 C 0,0 km/h (0 Bft)
20.07.2015 20:10 25,7 C 29,5 C 55 % 1011,7 hPa 0,0 mm 1,6 km/h (1 Bft) NO 45 16,0 C 0,0 km/h (0 Bft)
20.07.2015 20:15 25,3 C 29,1 C 56 % 1011,7 hPa 0,0 mm 1,3 km/h (1 Bft) N-NO 22 15,9 C 0,0 km/h (0 Bft)
20.07.2015 20:20 25,4 C 28,9 C 56 % 1011,7 hPa 0,0 mm 0,3 km/h (0 Bft) SO 135 16,0 C 0,0 km/h (0 Bft)
20.07.2015 20:25 25,3 C 28,6 C 56 % 1011,7 hPa 0,0 mm 0,8 km/h (0 Bft) O 90 15,9 C 0,0 km/h (0 Bft)
20.07.2015 20:31 24,8 C 27,9 C 57 % 1011,5 hPa 0,0 mm 0,5 km/h (0 Bft) S-SO 157 15,7 C 0,0 km/h (0 Bft)
20.07.2015 20:35 24,8 C 27,9 C 57 % 1011,5 hPa 0,0 mm 0,5 km/h (0 Bft) S-SO 157 15,7 C 0,0 km/h (0 Bft)
20.07.2015 20:40 24,4 C 27,4 C 58 % 1011,5 hPa 0,0 mm 0,3 km/h (0 Bft) O-SO 112 15,6 C 0,0 km/h (0 Bft)
20.07.2015 20:45 24,1 C 27,1 C 59 % 1011,5 hPa 0,0 mm 0,3 km/h (0 Bft) O-NO 67 15,6 C 0,0 km/h (0 Bft)
20.07.2015 20:50 23,7 C 26,7 C 60 % 1011,8 hPa 0,0 mm 0,0 km/h (0 Bft) O-NO 67 15,5 C 0,0 km/h (0 Bft)
20.07.2015 20:55 23,4 C 26,3 C 60 % 1011,8 hPa 0,0 mm 0,0 km/h (0 Bft) O 90 15,2 C 0,0 km/h (0 Bft)
20.07.2015 21:00 22,9 C 25,2 C 61 % 1011,8 hPa 0,0 mm 0,0 km/h (0 Bft) O-SO 112 15,0 C 0,0 km/h (0 Bft)
20.07.2015 21:05 22,7 C 24,5 C 63 % 1011,8 hPa 0,0 mm 0,0 km/h (0 Bft) SO 135 15,3 C 0,0 km/h (0 Bft)
20.07.2015 21:10 22,4 C 23,3 C 64 % 1011,9 hPa 0,0 mm 0,0 km/h (0 Bft) SO 135 15,2 C 0,0 km/h (0 Bft)
20.07.2015 21:15 22,1 C 22,7 C 65 % 1011,9 hPa 0,0 mm 0,0 km/h (0 Bft) SO 135 15,2 C 0,0 km/h (0 Bft)
20.07.2015 21:20 21,8 C 22,2 C 66 % 1011,9 hPa 0,0 mm 0,0 km/h (0 Bft) S-SO 157 15,2 C 0,0 km/h (0 Bft)
20.07.2015 21:25 21,6 C 21,8 C 66 % 1011,9 hPa 0,0 mm 0,3 km/h (0 Bft) S-SO 157 15,0 C 0,0 km/h (0 Bft)
20.07.2015 21:30 21,2 C 21,5 C 68 % 1011,9 hPa 0,0 mm 0,3 km/h (0 Bft) S-SO 157 15,1 C 0,0 km/h (0 Bft)
20.07.2015 21:35 21,1 C 21,3 C 68 % 1011,9 hPa 0,0 mm 0,3 km/h (0 Bft) S-SO 157 15,0 C 0,0 km/h (0 Bft)
20.07.2015 21:40 20,8 C 21,0 C 69 % 1011,9 hPa 0,0 mm 0,0 km/h (0 Bft) S 180 14,9 C 0,0 km/h (0 Bft)
20.07.2015 21:45 20,7 C 20,9 C 70 % 1011,9 hPa 0,0 mm 0,0 km/h (0 Bft) S-SO 157 15,0 C 0,0 km/h (0 Bft)
20.07.2015 21:50 20,1 C 20,3 C 70 % 1012,2 hPa 0,0 mm 0,0 km/h (0 Bft) S 180 14,5 C 0,0 km/h (0 Bft)
20.07.2015 21:55 19,9 C 20,2 C 71 % 1012,2 hPa 0,0 mm 0,0 km/h (0 Bft) SO 135 14,5 C 0,0 km/h (0 Bft)
20.07.2015 22:00 19,6 C 20,1 C 72 % 1012,2 hPa 0,0 mm 0,0 km/h (0 Bft) SO 135 14,4 C 0,0 km/h (0 Bft)
20.07.2015 22:05 19,5 C 19,8 C 72 % 1012,2 hPa 0,0 mm 0,0 km/h (0 Bft) S-SO 157 14,3 C 0,0 km/h (0 Bft)
20.07.2015 22:10 19,6 C 19,6 C 72 % 1012,1 hPa 0,0 mm 0,0 km/h (0 Bft) SO 135 14,4 C 0,0 km/h (0 Bft)
20.07.2015 22:15 19,6 C 19,6 C 72 % 1012,1 hPa 0,0 mm 0,0 km/h (0 Bft) SO 135 14,4 C 0,0 km/h (0 Bft)
20.07.2015 22:20 19,5 C 19,5 C 72 % 1012,1 hPa 0,0 mm 0,0 km/h (0 Bft) SO 135 14,3 C 0,0 km/h (0 Bft)
20.07.2015 22:25 19,4 C 19,3 C 72 % 1012,1 hPa 0,0 mm 0,0 km/h (0 Bft) S 180 14,2 C 0,0 km/h (0 Bft)
20.07.2015 22:30 19,3 C 19,1 C 72 % 1012,1 hPa 0,0 mm 0,0 km/h (0 Bft) S 180 14,1 C 0,0 km/h (0 Bft)
20.07.2015 22:35 19,2 C 19,0 C 72 % 1012,1 hPa 0,0 mm 0,0 km/h (0 Bft) S 180 14,0 C 0,0 km/h (0 Bft)
20.07.2015 22:40 19,0 C 18,8 C 72 % 1012,1 hPa 0,0 mm 0,0 km/h (0 Bft) S 180 13,8 C 0,0 km/h (0 Bft)
20.07.2015 22:45 19,0 C 18,8 C 72 % 1012,1 hPa 0,0 mm 0,0 km/h (0 Bft) S 180 13,8 C 0,0 km/h (0 Bft)
20.07.2015 22:50 18,8 C 18,6 C 73 % 1012,3 hPa 0,0 mm 0,0 km/h (0 Bft) W-SW 247 13,9 C 0,0 km/h (0 Bft)
20.07.2015 22:55 18,7 C 18,5 C 73 % 1012,3 hPa 0,0 mm 0,0 km/h (0 Bft) W-SW 247 13,8 C 0,0 km/h (0 Bft)
20.07.2015 23:00 18,7 C 18,5 C 74 % 1012,3 hPa 0,0 mm 0,0 km/h (0 Bft) W-SW 247 14,0 C 0,0 km/h (0 Bft)
20.07.2015 23:05 18,7 C 18,5 C 74 % 1012,3 hPa 0,0 mm 0,0 km/h (0 Bft) W-SW 247 14,0 C 0,0 km/h (0 Bft)
20.07.2015 23:10 18,6 C 18,3 C 74 % 1012,2 hPa 0,0 mm 0,0 km/h (0 Bft) SW 225 13,9 C 0,0 km/h (0 Bft)
20.07.2015 23:15 18,5 C 18,3 C 74 % 1012,2 hPa 0,0 mm 0,0 km/h (0 Bft) SW 225 13,8 C 0,0 km/h (0 Bft)
20.07.2015 23:20 18,4 C 18,1 C 75 % 1012,2 hPa 0,0 mm 0,0 km/h (0 Bft) S 180 13,9 C 0,0 km/h (0 Bft)
20.07.2015 23:25 18,5 C 18,2 C 75 % 1012,2 hPa 0,0 mm 0,0 km/h (0 Bft) S-SO 157 14,0 C 0,0 km/h (0 Bft)
20.07.2015 23:30 18,3 C 18,0 C 75 % 1012,4 hPa 0,0 mm 0,0 km/h (0 Bft) S-SO 157 13,8 C 0,0 km/h (0 Bft)
20.07.2015 23:35 18,1 C 17,9 C 75 % 1012,4 hPa 0,0 mm 0,0 km/h (0 Bft) S-SO 157 13,6 C 0,0 km/h (0 Bft)
20.07.2015 23:40 18,0 C 17,8 C 76 % 1012,4 hPa 0,0 mm 0,0 km/h (0 Bft) S-SO 157 13,7 C 0,0 km/h (0 Bft)
20.07.2015 23:45 18,0 C 17,7 C 76 % 1012,4 hPa 0,0 mm 0,0 km/h (0 Bft) S-SO 157 13,7 C 0,0 km/h (0 Bft)
20.07.2015 23:50 17,9 C 17,7 C 76 % 1012,4 hPa 0,0 mm 0,0 km/h (0 Bft) S 180 13,6 C 0,0 km/h (0 Bft)
20.07.2015 23:55 17,9 C 17,6 C 76 % 1012,4 hPa 0,0 mm 0,0 km/h (0 Bft) S 180 13,6 C 0,0 km/h (0 Bft)
_ Min-Zeit 05:00 05:00 15:55 00:05 - 23:55 - - 04:15 23:55
Minimum _ 15,5 C 15,4 C 48 % 1011,0 hPa - 0,0 km/h (0 Bft) - - 13,1 C 0,0 km/h (0 Bft)
_ Max-Zeit 15:40 16:25 05:35 11:25 23:55 16:30 - - 09:40 14:10
Maximum _ 28,3 C 32,6 C 88 % 1013,2 hPa 0,0 mm 11,9 km/h
NW (2 Bft)
- - 17,7 C 23,8 km/h
O-NO (4 Bft)
Durchschnitt _ 21,7 C 23,7 C 68 % 1012,0 hPa #0,0 mm 3,2 km/h (1 Bft) NW - 15,2 C 4,1 km/h (1 Bft)